This demonstration page uses our WeatherBlox Daily Observations layout. Learn more.

Left ArrowRight Arrow

Hourly Observations for May 28, 2020

Temp ( °F °C ) Dew Point ( °F °C ) Humidity (%) Winds ( mph kmh ) Pressure ( in mb ) Visibility ( mi km ) Precip ( " mm )
12:15 am 00:15 Cloudy 70 21 66 19 88 88 SE 3 6 30.15 1021 10 16 N/A
12:35 am 00:35 Cloudy 70 21 68 20 94 94 SE 7 11 30.15 1021 5 8 N/A
12:55 am 00:55 Cloudy 68 20 68 20 100 100 SE 5 7 30.14 1021 4 6 N/A
1:15 am 01:15 Cloudy 68 20 68 20 100 100 SE 5 7 30.14 1021 10 16 N/A
1:35 am 01:35 Cloudy 68 20 68 20 100 100 SE 7 11 30.13 1020 10 16 N/A
1:55 am 01:55 Cloudy 66 19 66 19 100 100 SE 5 7 30.13 1020 10 16 N/A
2:15 am 02:15 Cloudy 66 19 66 19 100 100 SE 7 11 30.12 1020 5 8 N/A
2:35 am 02:35 Cloudy 66 19 66 19 100 100 SE 7 11 30.12 1020 5 8 N/A
2:55 am 02:55 Cloudy 66 19 66 19 100 100 SE 8 13 30.11 1020 7 11 N/A
3:15 am 03:15 Cloudy 66 19 66 19 100 100 SE 7 11 30.11 1020 5 8 N/A
3:35 am 03:35 Cloudy 64 18 64 18 100 100 SE 7 11 30.09 1019 4 6 N/A
3:55 am 03:55 Cloudy 64 18 64 18 100 100 ESE 7 11 30.09 1019 10 16 N/A
4:15 am 04:15 Cloudy 64 18 64 18 100 100 SE 6 9 30.09 1019 10 16 N/A
4:35 am 04:35 Cloudy 64 18 64 18 100 100 SE 8 13 30.08 1019 10 16 N/A
4:55 am 04:55 Cloudy 64 18 64 18 100 100 SE 9 15 30.08 1019 10 16 N/A
5:15 am 05:15 Cloudy 64 18 64 18 100 100 SE 8 13 30.08 1019 7 11 0.01 0.25
5:35 am 05:35 Cloudy 64 18 64 18 100 100 SE 7 11 30.07 1018 10 16 0.02 0.51
5:55 am 05:55 Cloudy 64 18 64 18 100 100 SE 8 13 30.07 1018 10 16 0.02 0.51
6:15 am 06:15 Cloudy 64 18 64 18 100 100 SE 9 15 30.07 1018 10 16 N/A
6:35 am 06:35 Cloudy 64 18 64 18 100 100 SE 7 11 30.07 1018 7 11 N/A
6:55 am 06:55 Cloudy 66 19 66 19 100 100 SSE 13 20 30.07 1018 7 11 N/A
7:15 am 07:15 Cloudy 66 19 66 19 100 100 SSE 14 22 30.06 1018 7 11 N/A
7:35 am 07:35 Cloudy 66 19 66 19 100 100 SSE 13 20 30.05 1018 3 4 0.01 0.25
7:55 am 07:55 Cloudy 64 18 64 18 100 100 SSE 12 19 30.05 1018 4 6 0.02 0.51
8:15 am 08:15 Cloudy 64 18 64 18 100 100 SSE 15 24 30.05 1018 4 6 0.01 0.25
8:35 am 08:35 Cloudy 64 18 64 18 100 100 SSE 13 20 30.06 1018 10 16 0.01 0.25
8:55 am 08:55 Cloudy 66 19 66 19 100 100 SSE 17 28 30.06 1018 4 6 0.01 0.25
9:15 am 09:15 Cloudy 66 19 66 19 100 100 S 15 24 30.07 1018 4 6 N/A
9:35 am 09:35 Cloudy 66 19 66 19 100 100 S 13 20 30.07 1018 5 8 N/A
9:55 am 09:55 Cloudy 68 20 68 20 100 100 SSE 15 24 30.06 1018 5 8 0.01 0.25
10:15 am 10:15 Cloudy 68 20 68 20 100 100 SSE 13 20 30.05 1018 4 6 0.01 0.25
10:35 am 10:35 Cloudy 68 20 68 20 100 100 SSE 13 20 30.05 1018 10 16 0.01 0.25
10:55 am 10:55 Cloudy 68 20 68 20 100 100 SSE 13 20 30.05 1018 10 16 0.01 0.25
11:15 am 11:15 Cloudy 68 20 68 20 100 100 S 10 17 30.05 1018 10 16 N/A
11:35 am 11:35 Cloudy 70 21 68 20 94 94 S 15 24 30.05 1018 10 16 N/A
11:55 am 11:55 Cloudy 70 21 68 20 94 94 S 13 20 30.05 1018 10 16 N/A
12:15 pm 12:15 Mostly Cloudy 73 23 70 21 89 89 S 12 19 30.05 1018 10 16 N/A
12:35 pm 12:35 Cloudy 73 23 70 21 89 89 S 12 19 30.05 1018 10 16 N/A
12:55 pm 12:55 Cloudy 75 24 70 21 83 83 S 16 26 30.04 1017 10 16 N/A
1:15 pm 13:15 Mostly Cloudy 77 25 70 21 79 79 S 10 17 30.03 1017 10 16 N/A
1:55 pm 13:55 Cloudy 77 25 70 21 79 79 S 13 20 30.02 1017 10 16 N/A
2:15 pm 14:15 Partly Cloudy 79 26 70 21 74 74 S 16 26 30.02 1017 10 16 N/A
2:35 pm 14:35 Mostly Cloudy 79 26 70 21 74 74 S 9 15 30.02 1017 10 16 N/A
2:55 pm 14:55 Mostly Cloudy 81 27 70 21 70 70 S 13 20 30.01 1016 10 16 N/A
3:15 pm 15:15 Cloudy 81 27 70 21 70 70 S 15 24 30.01 1016 10 16 N/A
3:35 pm 15:35 Mostly Cloudy 82 28 70 21 66 66 S 10 17 30.00 1016 10 16 N/A
3:55 pm 15:55 Mostly Cloudy 82 28 70 21 66 66 S 13 20 30.00 1016 10 16 N/A
4:15 pm 16:15 Partly Cloudy 82 28 70 21 66 66 SSW 9 15 30.00 1016 10 16 N/A
4:35 pm 16:35 Partly Cloudy 82 28 70 21 66 66 SSW 16 26 29.99 1016 10 16 N/A
4:55 pm 16:55 Partly Cloudy 82 28 70 21 66 66 SSW 10 17 29.99 1016 10 16 N/A
5:15 pm 17:15 Partly Cloudy 82 28 70 21 66 66 S 13 20 29.98 1015 10 16 N/A
5:35 pm 17:35 Partly Cloudy 82 28 70 21 66 66 SSW 14 22 29.99 1016 10 16 N/A
5:55 pm 17:55 Partly Cloudy 82 28 70 21 66 66 S 12 19 29.98 1015 10 16 N/A
6:15 pm 18:15 Partly Cloudy 82 28 70 21 66 66 SSW 12 19 29.98 1015 10 16 N/A
6:35 pm 18:35 Sunny 81 27 70 21 70 70 S 10 17 29.98 1015 10 16 N/A
6:55 pm 18:55 Partly Cloudy 81 27 70 21 70 70 S 9 15 29.98 1015 10 16 N/A
7:15 pm 19:15 Sunny 81 27 70 21 70 70 S 13 20 29.98 1015 10 16 N/A
7:35 pm 19:35 Sunny 81 27 70 21 70 70 S 13 20 29.98 1015 10 16 N/A
7:55 pm 19:55 Sunny 79 26 70 21 74 74 S 10 17 29.98 1015 10 16 N/A
8:15 pm 20:15 Sunny 79 26 70 21 74 74 S 6 9 29.98 1015 10 16 N/A
8:35 pm 20:35 Partly Cloudy 77 25 70 21 79 79 S 9 15 29.99 1016 10 16 N/A
8:55 pm 20:55 Partly Cloudy 77 25 70 21 79 79 S 7 11 29.99 1016 10 16 N/A
9:15 pm 21:15 Partly Cloudy 75 24 70 21 83 83 S 3 6 30.01 1016 10 16 N/A
9:35 pm 21:35 Mostly Cloudy 77 25 70 21 79 79 SSE 6 9 30.00 1016 10 16 N/A
9:55 pm 21:55 Partly Cloudy 75 24 70 21 83 83 S 7 11 30.01 1016 10 16 N/A
10:15 pm 22:15 Mostly Cloudy 75 24 72 22 89 89 S 8 13 30.02 1016 10 16 N/A
10:35 pm 22:35 Mostly Cloudy 73 23 72 22 94 94 S 7 11 30.02 1016 10 16 N/A
10:55 pm 22:55 Mostly Cloudy 73 23 72 22 94 94 SSE 7 11 30.03 1017 10 16 N/A
11:15 pm 23:15 Cloudy 73 23 72 22 94 94 S 7 11 30.02 1016 10 16 N/A
11:35 pm 23:35 Cloudy 72 22 72 22 100 100 S 5 7 30.03 1017 10 16 N/A
11:55 pm 23:55 Cloudy 72 22 72 22 100 100 S 7 11 30.03 1017 10 16 N/A

Powered by AerisWeather